FW2972 Weather Reports


Display with metric or nautical units.
time (UTC)temp
F
wind
direction
speed
MPH
gust
MPH
rain 1hr
in
rain 24hr
in
rain mn
in
humidity
%
barometer
mb
20260506204636 86 211 2.0 4.0 0.00 0.00 0.00 83 1012.9
20260506204133 85 184 1.0 9.0 0.00 0.00 0.00 84 1012.9
20260506203631 85 278 1.0 6.0 0.00 0.00 0.00 84 1013.1
20260506203127 86 210 3.0 7.0 0.00 0.00 0.00 84 1013.1
20260506202626 85 179 4.0 11.0 0.00 0.00 0.00 85 1012.9
20260506202121 84 212 3.0 11.0 0.00 0.00 0.00 86 1013.1
20260506201619 84 218 4.0 9.0 0.00 0.00 0.00 87 1013.2
20260506201115 83 223 1.0 8.0 0.00 0.00 0.00 89 1013.4
20260506200612 83 220 0.0 5.0 0.00 0.00 0.00 88 1013.5
20260506200109 82 184 3.0 4.0 0.00 0.00 0.00 89 1013.6
20260506195605 82 217 2.0 9.0 0.00 0.00 0.00 89 1013.6
20260506195102 83 147 6.0 10.0 0.00 0.00 0.00 89 1013.6
20260506194559 84 141 5.0 11.0 0.00 0.00 0.00 88 1013.5
20260506194055 84 156 3.0 7.0 0.00 0.00 0.00 87 1013.7
20260506193553 84 188 4.0 6.0 0.00 0.00 0.00 87 1013.8
20260506193050 84 206 0.0 10.0 0.00 0.00 0.00 87 1013.8
20260506192547 84 230 1.0 6.0 0.00 0.00 0.00 87 1013.8
20260506192043 85 194 2.0 7.0 0.00 0.00 0.00 86 1013.6
20260506191540 84 171 1.0 8.0 0.00 0.00 0.00 87 1013.8
20260506191035 84 159 3.0 9.0 0.00 0.00 0.00 86 1014.0
20260506190533 84 172 3.0 7.0 0.00 0.00 0.00 86 1014.1
20260506190030 84 261 3.0 8.0 0.00 0.00 0.00 87 1014.0
20260506185527 84 240 2.0 6.0 0.00 0.00 0.00 87 1014.1
20260506185024 84 216 2.0 6.0 0.00 0.00 0.00 87 1014.2
20260506184521 84 277 3.0 5.0 0.00 0.00 0.00 87 1014.2
20260506184018 84 171 2.0 7.0 0.00 0.00 0.00 87 1014.1
20260506183514 84 129 3.0 11.0 0.00 0.00 0.00 87 1014.1
20260506183011 84 179 1.0 8.0 0.00 0.00 0.00 87 1014.3
20260506182508 84 224 3.0 7.0 0.00 0.00 0.00 87 1014.2
20260506182005 84 254 1.0 5.0 0.00 0.00 0.00 86 1014.6
20260506181503 84 255 2.0 6.0 0.00 0.00 0.00 88 1014.5
20260506181000 84 180 1.0 5.0 0.00 0.00 0.00 87 1014.6
20260506180456 85 220 2.0 3.0 0.00 0.00 0.00 86 1014.6
20260506175953 85 326 0.0 5.0 0.00 0.00 0.00 86 1014.7
20260506175449 84 218 0.0 11.0 0.00 0.00 0.00 88 1014.5
20260506174946 83 138 2.0 8.0 0.00 0.00 0.00 89 1014.8
20260506174444 83 185 3.0 9.0 0.00 0.00 0.00 89 1014.6
20260506173940 82 230 7.0 14.0 0.00 0.00 0.00 90 1014.8
20260506173438 82 166 3.0 5.0 0.00 0.00 0.00 91 1014.8
20260506172935 82 230 1.0 6.0 0.00 0.00 0.00 90 1015.0
20260506172432 82 147 2.0 7.0 0.00 0.00 0.00 89 1015.0
20260506171928 82 112 5.0 6.0 0.00 0.00 0.00 90 1015.1
20260506171426 82 195 0.0 4.0 0.00 0.00 0.00 91 1015.0
20260506170924 82 141 3.0 6.0 0.00 0.00 0.00 91 1015.0
20260506170419 82 171 2.0 3.0 0.00 0.00 0.00 91 1015.3
20260506165913 82 209 1.0 3.0 0.00 0.00 0.00 93 1015.1
20260506165411 81 240 1.0 7.0 0.00 0.00 0.00 94 1015.5
20260506164907 80 147 2.0 4.0 0.00 0.00 0.00 95 1015.1
20260506164403 81 197 0.0 2.0 0.00 0.00 0.00 96 1015.2
20260506163901 80 191 0.0 4.0 0.00 0.00 0.00 96 1015.5
20260506163356 80 168 2.0 4.0 0.02 0.00 0.00 96 1015.1
20260506162851 80 191 2.0 2.0 0.02 0.00 0.00 96 1015.1
20260506162349 80 185 0.0 3.0 0.00 0.00 0.00 95 1015.1
20260506161841 80 94 2.0 5.0 0.00 0.00 0.00 95 1014.9
20260506161338 80 155 4.0 6.0 0.00 0.00 0.00 96 1015.0
20260506160835 79 212 0.0 3.0 0.00 0.00 0.00 95 1015.1
20260506160332 79 210 1.0 4.0 0.00 0.00 0.00 96 1015.1
20260506155830 79 159 0.0 3.0 0.00 0.00 0.00 96 1015.1
20260506155326 80 177 1.0 5.0 0.00 0.00 0.00 95 1015.0
20260506153439 79 244 1.0 4.0 0.00 0.00 0.00 97 1014.8
20260506152936 79 170 2.0 3.0 0.00 0.00 0.00 96 1014.6
20260506152433 79 140 2.0 6.0 0.00 0.00 0.00 96 1014.5
20260506151932 79 152 2.0 5.0 0.00 0.00 0.00 96 1014.6
20260506151428 79 165 2.0 5.0 0.00 0.00 0.00 96 1014.4
20260506150926 79 172 2.0 7.0 0.00 0.00 0.00 96 1014.5
20260506150422 79 255 3.0 9.0 0.00 0.00 0.00 96 1014.2
20260506145919 79 155 2.0 6.0 0.00 0.00 0.00 96 1014.1
20260506145415 79 213 3.0 5.0 0.00 0.00 0.00 96 1014.1
20260506144913 79 104 3.0 7.0 0.00 0.00 0.00 96 1013.8
20260506144409 79 182 1.0 7.0 0.00 0.00 0.00 97 1013.9
20260506143908 78 243 4.0 5.0 0.00 0.00 0.00 97 1014.0
20260506143404 78 214 0.0 7.0 0.00 0.00 0.00 97 1013.9
20260506142903 78 157 2.0 7.0 0.00 0.00 0.00 96 1014.0
20260506142401 79 155 1.0 7.0 0.00 0.00 0.00 96 1013.9
20260506141858 79 116 4.0 7.0 0.00 0.00 0.00 96 1014.3
20260506141356 79 230 2.0 6.0 0.00 0.00 0.00 96 1014.0
20260506140854 79 149 1.0 9.0 0.00 0.00 0.00 96 1014.1
20260506140351 79 129 1.0 5.0 0.00 0.00 0.00 96 1014.2
20260506135848 79 216 3.0 3.0 0.00 0.00 0.00 95 1014.2
20260506135344 79 189 1.0 5.0 0.00 0.00 0.00 96 1014.3
20260506134841 79 189 1.0 4.0 0.00 0.00 0.00 97 1014.1
20260506134337 78 186 2.0 6.0 0.00 0.00 0.00 97 1014.3
20260506133834 78 160 3.0 4.0 0.00 0.00 0.00 98 1014.2
20260506133331 78 146 0.0 3.0 0.00 0.00 0.00 98 1014.3
20260506132827 78 210 1.0 2.0 0.00 0.00 0.00 98 1014.3
20260506132325 78 122 3.0 4.0 0.00 0.00 0.00 98 1014.2
20260506131823 77 210 1.0 4.0 0.00 0.00 0.00 99 1014.5
20260506131319 77 210 2.0 3.0 0.00 0.00 0.00 99 1014.4
20260506130816 77 193 0.0 3.0 0.00 0.00 0.00 99 1014.1
20260506130312 77 212 0.0 3.0 0.00 0.00 0.00 99 1014.2
20260506125811 77 81 0.0 3.0 0.00 0.00 0.00 99 1014.3
20260506125308 77 323 0.0 6.0 0.00 0.00 0.00 99 1014.4
20260506124807 77 197 1.0 5.0 0.00 0.00 0.00 99 1014.0
20260506124303 77 204 1.0 3.0 0.00 0.00 0.00 99 1014.1
20260506123801 77 254 2.0 4.0 0.00 0.00 0.00 99 1014.0
20260506123300 77 190 1.0 3.0 0.00 0.00 0.00 99 1013.9
20260506122756 77 164 1.0 5.0 0.00 0.00 0.00 99 1014.0
20260506122253 77 172 1.0 6.0 0.00 0.00 0.00 99 1013.8
20260506121751 76 191 2.0 5.0 0.00 0.00 0.00 99 1014.0
20260506121248 76 142 0.0 4.0 0.00 0.00 0.00 99 1013.8
20260506120745 76 213 2.0 6.0 0.00 0.00 0.00 99 1013.6
20260506120243 76 148 5.0 7.0 0.00 0.00 0.00 99 1013.6
20260506115740 76 230 0.0 3.0 0.00 0.00 0.00 99 1013.6
20260506115238 76 267 1.0 4.0 0.00 0.00 0.00 99 1013.6
20260506114736 76 217 0.0 7.0 0.00 0.00 0.00 99 1013.4
20260506114233 76 185 3.0 5.0 0.00 0.00 0.00 99 1013.3
20260506113731 76 164 2.0 5.0 0.00 0.00 0.00 99 1013.3
20260506113229 76 161 1.0 3.0 0.00 0.00 0.00 99 1013.1
20260506112725 76 170 1.0 3.0 0.00 0.00 0.00 99 1013.3
20260506112223 76 138 2.0 6.0 0.00 0.00 0.00 99 1013.1
20260506111720 76 150 3.0 5.0 0.00 0.00 0.00 99 1013.2
20260506111218 76 220 0.0 10.0 0.00 0.00 0.00 99 1012.9
20260506110714 76 132 1.0 4.0 0.00 0.00 0.00 99 1013.0
20260506110212 76 155 3.0 4.0 0.00 0.00 0.00 99 1012.8
20260506105709 76 184 2.0 8.0 0.00 0.00 0.00 99 1013.0
20260506105205 76 166 0.0 6.0 0.00 0.00 0.00 99 1013.3
20260506104704 76 210 1.0 4.0 0.00 0.00 0.00 99 1013.1
20260506104201 76 180 1.0 8.0 0.00 0.00 0.00 99 1013.1
20260506103658 76 106 1.0 3.0 0.00 0.00 0.00 99 1013.3
20260506103155 75 146 1.0 3.0 0.00 0.00 0.00 99 1013.3
20260506102653 75 134 2.0 3.0 0.00 0.00 0.00 99 1013.2
20260506102150 75 217 0.0 1.0 0.00 0.00 0.00 99 1013.3
20260506101647 75 230 0.0 0.0 0.00 0.00 0.00 99 1013.0
20260506101144 75 147 0.0 2.0 0.00 0.00 0.00 99 1013.0
20260506100642 75 153 1.0 3.0 0.00 0.00 0.00 99 1012.9
20260506100140 75 124 2.0 2.0 0.00 0.00 0.00 99 1012.9
20260506095638 75 140 2.0 3.0 0.00 0.00 0.00 99 1012.9
20260506095134 75 163 1.0 2.0 0.00 0.00 0.00 99 1012.7
20260506094632 76 170 1.0 3.0 0.00 0.00 0.00 99 1013.0
20260506094130 76 182 0.0 3.0 0.00 0.00 0.00 99 1012.8
20260506093628 76 129 1.0 2.0 0.00 0.00 0.00 99 1012.9
20260506093125 76 160 0.0 4.0 0.00 0.00 0.00 99 1013.0
20260506092623 76 164 0.0 4.0 0.00 0.00 0.00 99 1012.9
20260506092120 76 178 0.0 3.0 0.00 0.00 0.00 99 1013.0
20260506091618 76 190 1.0 3.0 0.00 0.00 0.00 99 1012.8
20260506091115 76 192 1.0 4.0 0.00 0.00 0.00 99 1013.0
20260506090613 76 139 0.0 4.0 0.00 0.00 0.00 99 1013.1
20260506090109 76 140 1.0 6.0 0.00 0.00 0.00 99 1013.0
20260506085606 76 179 1.0 4.0 0.00 0.00 0.00 99 1013.0
20260506085102 76 128 1.0 7.0 0.00 0.00 0.00 99 1013.1
20260506084559 76 118 2.0 2.0 0.00 0.00 0.00 99 1013.1
20260506084055 76 180 2.0 4.0 0.00 0.00 0.00 99 1013.3
20260506083552 76 199 0.0 4.0 0.00 0.00 0.00 98 1013.4
20260506083050 76 117 0.0 3.0 0.00 0.00 0.00 98 1013.4
20260506082546 77 188 0.0 5.0 0.00 0.00 0.00 98 1013.3
20260506082042 77 184 0.0 5.0 0.00 0.00 0.00 98 1013.1
20260506081541 77 168 2.0 7.0 0.00 0.00 0.00 98 1013.1
20260506081037 77 171 0.0 5.0 0.00 0.00 0.00 98 1013.2
20260506080535 77 196 2.0 5.0 0.00 0.00 0.00 98 1013.3
20260506073519 77 235 2.0 4.0 0.00 0.00 0.00 97 1013.8
20260506073016 77 294 2.0 4.0 0.00 0.00 0.00 97 1013.9
20260506072513 77 235 0.0 3.0 0.00 0.00 0.00 97 1013.9
20260506072010 77 219 2.0 7.0 0.00 0.00 0.00 97 1013.9
20260506071508 77 197 2.0 4.0 0.00 0.00 0.00 97 1013.7
20260506071005 77 248 0.0 4.0 0.00 0.00 0.00 97 1014.0
20260506070503 77 212 1.0 4.0 0.00 0.00 0.00 97 1014.0
20260506062440 77 190 1.0 4.0 0.00 0.00 0.00 97 1013.8
20260506061935 77 89 2.0 4.0 0.00 0.00 0.00 97 1013.8
20260506061432 77 221 1.0 3.0 0.00 0.00 0.00 97 1013.9
20260506060930 77 135 3.0 4.0 0.00 0.00 0.00 97 1013.9
20260506060428 77 164 0.0 4.0 0.00 0.00 0.00 97 1013.8
20260506051400 77 188 3.0 7.0 0.00 0.00 0.00 96 1014.2
20260506050857 77 201 1.0 3.0 0.00 0.00 0.00 96 1014.0
20260506050355 77 157 3.0 10.0 0.00 0.00 0.00 96 1014.1
20260506044845 77 275 0.0 7.0 0.00 0.00 0.00 96 1014.1
20260506044343 77 187 0.0 7.0 0.00 0.00 0.00 96 1014.0
20260506043840 77 202 2.0 7.0 0.00 0.00 0.00 96 1014.0
20260506043337 77 113 2.0 13.0 0.00 0.00 0.00 96 1013.9
20260506042835 77 156 2.0 11.0 0.00 0.00 0.00 96 1013.8
20260506042334 77 144 4.0 8.0 0.00 0.00 0.00 96 1014.0
20260506041832 77 158 2.0 7.0 0.00 0.00 0.00 96 1013.8
20260506041329 77 137 1.0 11.0 0.00 0.00 0.00 96 1014.0
20260506040826 77 129 2.0 11.0 0.00 0.00 0.00 96 1013.9
20260506040324 77 163 1.0 7.0 0.00 0.00 0.00 96 1013.7
20260506035820 77 192 1.0 4.0 0.00 0.00 0.00 95 1013.7
20260506035317 77 162 3.0 7.0 0.00 0.00 0.00 95 1013.9
20260506034814 77 184 3.0 10.0 0.00 0.00 0.00 95 1013.8
20260506034311 77 202 2.0 14.0 0.00 0.00 0.00 95 1013.7
20260506033808 77 143 3.0 10.0 0.00 0.00 0.00 95 1013.6
20260506033305 77 195 3.0 13.0 0.00 0.00 0.00 95 1013.7
20260506032802 77 213 2.0 7.0 0.00 0.00 0.00 95 1013.4
20260506032259 77 138 2.0 5.0 0.00 0.00 0.00 95 1013.6
20260506031755 77 116 5.0 9.0 0.00 0.00 0.00 95 1013.5
20260506031253 77 182 1.0 9.0 0.00 0.00 0.00 95 1013.5
20260506030751 77 135 4.0 6.0 0.00 0.00 0.00 95 1013.5
20260506030248 77 233 2.0 4.0 0.00 0.00 0.00 95 1013.6
20260506025745 77 143 2.0 5.0 0.00 0.00 0.00 96 1013.5
20260506025241 77 201 1.0 9.0 0.00 0.00 0.00 96 1013.3
20260506024738 77 182 2.0 4.0 0.00 0.00 0.00 96 1013.1
20260506024235 77 152 1.0 7.0 0.00 0.00 0.00 96 1013.1
20260506023731 77 205 1.0 8.0 0.00 0.00 0.00 96 1013.1
20260506023228 77 257 2.0 5.0 0.00 0.00 0.00 96 1013.2
20260506022719 77 160 2.0 7.0 0.00 0.00 0.00 95 1012.9
20260506022217 77 124 4.0 8.0 0.00 0.00 0.00 95 1012.9
20260506021715 77 179 1.0 4.0 0.00 0.00 0.00 95 1012.9
20260506021212 77 185 2.0 4.0 0.00 0.00 0.00 95 1012.7
20260506020708 77 191 2.0 9.0 0.00 0.00 0.00 95 1012.7
20260506020206 77 183 2.0 5.0 0.00 0.00 0.00 95 1012.7
20260506015704 77 202 1.0 8.0 0.00 0.00 0.00 95 1012.4
20260506015201 77 273 0.0 3.0 0.00 0.00 0.00 94 1012.7
20260506014658 77 185 2.0 7.0 0.00 0.00 0.00 94 1012.4
20260506014154 78 91 2.0 6.0 0.00 0.00 0.00 94 1012.4
20260506013652 78 249 1.0 11.0 0.00 0.00 0.00 94 1012.4
20260506013149 78 168 2.0 5.0 0.00 0.00 0.00 94 1012.2
20260506012645 78 226 2.0 8.0 0.00 0.00 0.00 93 1012.2
20260506012142 78 184 3.0 6.0 0.00 0.00 0.00 93 1012.2
20260506011639 78 166 3.0 8.0 0.00 0.00 0.00 93 1012.2
20260506011135 78 171 1.0 10.0 0.00 0.00 0.00 93 1012.0
20260506010634 78 196 2.0 7.0 0.00 0.00 0.00 93 1012.1
20260506010131 78 211 1.0 8.0 0.00 0.00 0.00 92 1011.9
20260506005628 78 124 3.0 8.0 0.00 0.00 0.00 92 1011.7
20260506005124 78 198 3.0 12.0 0.00 0.00 0.00 92 1011.7
20260506004621 78 155 2.0 11.0 0.00 0.00 0.00 92 1011.7
20260506004118 78 259 4.0 9.0 0.00 0.00 0.00 92 1011.9
20260506003615 78 229 0.0 4.0 0.00 0.00 0.00 91 1011.6
20260506003111 78 181 3.0 6.0 0.00 0.00 0.00 92 1011.5
20260506002607 79 128 3.0 7.0 0.00 0.00 0.00 91 1011.7
20260506002103 79 216 2.0 5.0 0.00 0.00 0.00 91 1011.7
20260506001559 79 216 4.0 10.0 0.00 0.00 0.00 91 1011.7
20260506001056 79 248 4.0 9.0 0.00 0.00 0.00 91 1011.5
20260506000554 79 163 2.0 11.0 0.00 0.00 0.00 91 1011.5
20260506000051 79 122 1.0 7.0 0.00 0.00 0.00 90 1011.6
20260505235549 79 167 2.0 5.0 0.00 0.00 0.00 90 1011.8
20260505235045 79 258 3.0 6.0 0.00 0.00 0.00 90 1011.8
20260505234543 79 286 5.0 8.0 0.00 0.00 0.00 90 1011.7
20260505234039 79 235 0.0 6.0 0.00 0.00 0.00 90 1011.6
20260505233537 79 242 3.0 10.0 0.00 0.00 0.00 89 1011.6
20260505233034 80 187 2.0 6.0 0.00 0.00 0.00 89 1011.9
20260505232532 80 197 2.0 7.0 0.00 0.00 0.00 88 1011.8
20260505232029 80 200 1.0 4.0 0.00 0.00 0.00 88 1011.7
20260505231526 80 175 1.0 5.0 0.00 0.00 0.00 88 1011.7
20260505231025 80 216 1.0 11.0 0.00 0.00 0.00 88 1011.5
20260505230521 80 205 2.0 8.0 0.00 0.00 0.00 88 1012.0
20260505230018 80 251 4.0 15.0 0.00 0.00 0.00 87 1011.7
20260505225515 80 262 2.0 7.0 0.00 0.00 0.00 87 1011.7
20260505225011 80 292 1.0 6.0 0.00 0.00 0.00 87 1011.9
20260505224508 80 328 1.0 6.0 0.00 0.00 0.00 87 1011.6
20260505224005 80 218 3.0 7.0 0.00 0.00 0.00 88 1011.5
20260505223502 80 239 1.0 4.0 0.00 0.00 0.00 88 1011.7
20260505222958 80 261 3.0 4.0 0.00 0.00 0.00 88 1011.8
20260505222455 80 64 0.0 6.0 0.00 0.00 0.00 88 1011.8
20260505221950 80 254 3.0 5.0 0.00 0.00 0.00 89 1011.8
20260505221448 80 135 3.0 8.0 0.00 0.00 0.00 89 1012.1
20260505220945 80 186 2.0 8.0 0.00 0.00 0.00 89 1011.9
20260505220442 81 189 2.0 8.0 0.00 0.00 0.00 88 1011.7
20260505215939 81 210 2.0 10.0 0.00 0.00 0.00 88 1012.1
20260505215438 81 197 0.0 5.0 0.00 0.00 0.00 88 1012.2
20260505214935 81 225 1.0 4.0 0.00 0.00 0.00 88 1012.0
20260505214433 81 297 1.0 5.0 0.00 0.00 0.00 88 1012.2
20260505213930 81 269 0.0 8.0 0.00 0.00 0.00 87 1012.5
20260505213427 82 233 1.0 7.0 0.00 0.00 0.00 86 1012.3
20260505212923 82 248 2.0 6.0 0.00 0.00 0.00 86 1012.3
20260505212421 82 130 2.0 5.0 0.00 0.00 0.00 87 1012.2
20260505211916 81 272 2.0 10.0 0.00 0.00 0.00 88 1012.4
20260505211414 80 255 5.0 6.0 0.00 0.00 0.00 89 1012.3
20260505210910 80 257 3.0 9.0 0.00 0.00 0.00 89 1012.6
20260505210408 81 254 4.0 11.0 0.00 0.00 0.00 88 1012.6
20260505205905 82 231 4.0 8.0 0.00 0.00 0.00 87 1012.2
20260505205403 81 274 2.0 10.0 0.00 0.00 0.00 88 1012.6